Location: Stockholm
(59.3330°N, 18.0500°E)
Time: 14:06:49
(UTC+02:00)

NOAA 18 - Visible Passes

Search period start: 02 April 2023 00:00
Search period end: 12 April 2023 00:00
Orbit: 839 x 859 km, 98.9° (Epoch: 02 April)

Date Brightness Start Highest point End Pass type
(mag) Time Alt. Az. Time Alt. Az. Time Alt. Az.
02 Apr 7.7 00:51:35 10° WNW 00:51:40 10° WNW 00:51:45 10° WNW visible
02 Apr 5.8 21:12:36 17° ESE 21:16:30 44° ENE 21:21:45 10° NNW visible
02 Apr 5.8 22:54:34 29° SSW 22:57:10 51° W 23:02:36 10° NNW visible
03 Apr 7.6 00:36:58 10° WSW 00:39:12 12° WNW 00:41:27 10° NW visible
03 Apr 6.0 21:00:09 14° ESE 21:04:23 38° NE 21:09:30 10° N visible
03 Apr 5.6 22:42:07 29° S 22:44:54 60° WSW 22:50:26 10° NNW visible
04 Apr 7.4 00:24:05 11° WSW 00:26:45 15° W 00:29:52 10° NW visible
04 Apr 6.2 20:47:41 12° ESE 20:52:17 34° NE 20:57:13 10° N visible
04 Apr 5.4 22:29:40 28° S 22:32:39 71° WSW 22:38:14 10° NNW visible
05 Apr 7.3 00:11:37 13° WSW 00:14:20 18° W 00:18:03 10° NW visible
05 Apr 6.3 20:35:29 10° ESE 20:40:12 30° NE 20:44:56 10° N visible
05 Apr 5.2 22:17:12 27° SSE 22:20:26 83° WSW 22:26:02 10° NNW visible
05 Apr 7.1 23:59:10 15° WSW 00:01:56 21° W 00:06:07 10° NW visible
06 Apr 6.5 20:23:38 10° ESE 20:28:08 26° NE 20:32:39 10° N visible
06 Apr 5.2 22:04:45 24° SSE 22:08:13 85° ENE 22:13:49 10° NNW visible
06 Apr 6.9 23:46:44 17° SW 23:49:34 25° W 23:54:06 10° NW visible
07 Apr 5.3 21:52:18 22° SSE 21:56:02 73° ENE 22:01:35 10° NNW visible
07 Apr 6.7 23:34:16 19° SW 23:37:12 29° W 23:42:03 10° NNW visible
08 Apr 5.4 21:39:51 19° SE 21:43:51 62° ENE 21:49:21 10° NNW visible
08 Apr 6.4 23:21:48 20° SW 23:24:52 35° W 23:29:57 10° NNW visible
09 Apr 5.6 21:27:24 16° SE 21:31:42 53° ENE 21:37:05 10° NNW visible
09 Apr 6.2 23:09:22 22° SSW 23:12:33 41° W 23:17:49 10° NNW visible
10 Apr 5.8 21:14:56 13° SE 21:19:34 46° ENE 21:24:50 10° NNW visible
10 Apr 5.9 22:56:54 22° SSW 23:00:16 49° W 23:05:40 10° NNW visible
11 Apr 7.6 00:40:22 10° W 00:42:20 12° WNW 00:44:18 10° WNW visible
11 Apr 6.0 21:02:29 11° ESE 21:07:26 40° NE 21:12:34 10° N visible
11 Apr 5.6 22:44:27 22° S 22:47:59 58° WSW 22:53:29 10° NNW visible
